Location: Little Baddow
(51.7333°N, 0.5667°E)
Time: 06:32:21
(UTC+00:00)

Cosmos 2278 Rocket - Pass Details

Date: 08 November 2025
Orbit: 841 x 843 km, 71.0° (Epoch: 11 December)

Event Time Altitude Azimuth Distance (km) Brightness Sun altitude
Exits shadow 03:29:55 27° 10° (N) 1,565 3.7 -33.2°
Maximum altitude 03:31:44 33° 44° (NE) 1,384 3.7 -32.9°
Drops below altitude 10° 03:36:48 10° 108° (ESE) 2,461 5.2 -32.1°
Sets 03:39:29 0° 118° (ESE) 3,393 6.0 -31.7°
